WetterOnline ( https://www.wetteronline.de )

Wetter aktuell Weissach

Aktuelles Wetter: Kaisersbach-Cronhütte (489m)

6-stündlich | Neueste Meldungen
Ortszeit Temperatur Wetter
Di, 14.07. 20:00 21.0° C bewölkt
Di, 14.07. 14:00 22.2° C bewölkt
Di, 14.07. 8:00 13.8° C wolkig
Di, 14.07. 2:00 9.3° C wolkig
Mo, 13.07. 20:00 21.9° C wolkig
Mo, 13.07. 14:00 20.6° C wolkig
Mo, 13.07. 8:00 14.5° C leicht bewölkt
Mo, 13.07. 2:00 9.6° C wolkenlos
Ortszeit Temperatur Wetter
Mi, 15.07. 1:30 18.3° C bedeckt
Mi, 15.07. 1:20 18.3° C bedeckt
Mi, 15.07. 1:10 18.5° C leichter Regen
Mi, 15.07. 1:00 18.5° C bedeckt
Mi, 15.07. 0:50 18.5° C bedeckt
Mi, 15.07. 0:40 18.8° C bedeckt
Mi, 15.07. 0:30 19.2° C bedeckt
Mi, 15.07. 0:00 18.6° C bewölkt
Di, 14.07. 23:30 17.5° C bewölkt
Di, 14.07. 23:00 16.5° C wolkig
Di, 14.07. 22:30 17.1° C bewölkt
Ortszeit Relative Feuchte Sichtweite
Di, 14.07. 20:00 49% >70 km
Di, 14.07. 14:00 34% 65 km
Di, 14.07. 8:00 74% 55 km
Di, 14.07. 2:00 86% >70 km
Mo, 13.07. 20:00 35% 60 km
Mo, 13.07. 14:00 36% >70 km
Mo, 13.07. 8:00 65% >70 km
Mo, 13.07. 2:00 82% >70 km
Ortszeit Relative Feuchte Sichtweite
Mi, 15.07. 1:30 55% >70 km
Mi, 15.07. 1:20 55% -
Mi, 15.07. 1:10 53% -
Mi, 15.07. 1:00 53% 60 km
Mi, 15.07. 0:50 53% -
Mi, 15.07. 0:40 52% -
Mi, 15.07. 0:30 50% 55 km
Mi, 15.07. 0:00 53% 65 km
Di, 14.07. 23:30 57% 65 km
Di, 14.07. 23:00 61% 65 km
Di, 14.07. 22:30 59% 60 km
Ortszeit Niederschlagsmenge Niederschlagsart
Di, 14.07. 20:00 0.0 l/m2 in 12 Std. -
Di, 14.07. 14:00 0.0 l/m2 in 6 Std. -
Di, 14.07. 8:00 0.0 l/m2 in 12 Std. -
Di, 14.07. 2:00 0.0 l/m2 in 6 Std. -
Mo, 13.07. 20:00 0.0 l/m2 in 12 Std. -
Mo, 13.07. 14:00 0.0 l/m2 in 6 Std. -
Mo, 13.07. 8:00 0.0 l/m2 in 12 Std. -
Mo, 13.07. 2:00 0.0 l/m2 in 6 Std. -
Ortszeit Niederschlagsmenge Niederschlagsart
Mi, 15.07. 1:30 0.1 l/m2 in 1 Std. Schneeregen
Mi, 15.07. 1:20 keine Meldung -
Mi, 15.07. 1:10 keine Meldung -
Mi, 15.07. 1:00 0.0 l/m2 in 1 Std. -
Mi, 15.07. 0:50 keine Meldung -
Mi, 15.07. 0:40 keine Meldung -
Mi, 15.07. 0:30 0.0 l/m2 in 1 Std. -
Mi, 15.07. 0:00 0.0 l/m2 in 1 Std. -
Di, 14.07. 23:30 0.0 l/m2 in 1 Std. -
Di, 14.07. 23:00 0.0 l/m2 in 1 Std. -
Di, 14.07. 22:30 0.0 l/m2 in 1 Std. -
Ortszeit Stärke Spitze Richtung
km/h Bft. km/h Grad Sektor
Di, 14.07. 20:00 4 1 18 270° W
Di, 14.07. 14:00 7 2 22 270° W
Di, 14.07. 8:00 0 0 4 - -
Di, 14.07. 2:00 0 0 14 - -
Mo, 13.07. 20:00 9 2 28 90° O
Mo, 13.07. 14:00 14 3 32 70° O
Mo, 13.07. 8:00 4 1 4 80° O
Mo, 13.07. 2:00 4 1 22 330° NW
Ortszeit Stärke Spitze Richtung
km/h Bft. km/h Grad Sektor
Mi, 15.07. 1:30 7 2 18 300° NW
Mi, 15.07. 1:20 7 2 - 300° NW
Mi, 15.07. 1:10 7 2 - 300° NW
Mi, 15.07. 1:00 7 2 14 280° W
Mi, 15.07. 0:50 7 2 - 280° W
Mi, 15.07. 0:40 7 2 - 280° W
Mi, 15.07. 0:30 7 2 14 280° W
Mi, 15.07. 0:00 7 2 14 300° NW
Di, 14.07. 23:30 6 1 13 290° W
Di, 14.07. 23:00 0 0 4 - -
Di, 14.07. 22:30 2 1 4 340° N
Ortszeit Untergrenze Bedeckung Gattung
total tief tief mittel hoch
Di, 14.07. 20:00 3300 m 8/8 7/8 - - -
Di, 14.07. 14:00 2400 m 7/8 7/8 - - -
Di, 14.07. 8:00 6600 m 8/8 6/8 - - -
Di, 14.07. 2:00 7200 m 8/8 0/8 - - -
Mo, 13.07. 20:00 2100 m 7/8 4/8 - - -
Mo, 13.07. 14:00 1800 m 7/8 4/8 - - -
Mo, 13.07. 8:00 8700 m 7/8 0/8 - - -
Mo, 13.07. 2:00 10500 m 0/8 0/8 - - -
Ortszeit Bedeckungsgrad in Achtel und Wolkenuntergrenze
Mi, 15.07. 1:30 8(2400m)
Mi, 15.07. 1:20 8(2400m)
Mi, 15.07. 1:10 7(2400m) 8(3000m)
Mi, 15.07. 1:00 8(2700m)
Mi, 15.07. 0:50 8(2700m)
Mi, 15.07. 0:40 8(2700m)
Mi, 15.07. 0:30 8(3000m) 8(3000m)
Mi, 15.07. 0:00 5(2400m) 7(3000m) 8(3900m)
Di, 14.07. 23:30 4(2400m) 8(3300m) 8(3900m)
Di, 14.07. 23:00 2(2100m) 8(3300m) 8(3900m)
Di, 14.07. 22:30 7(2700m) 8(3300m) 8(4500m)
Ortszeit Luftdruck NN (hPa) Tendenz (hPa in 3 Std.)
Di, 14.07. 20:00 1012 - 0,5
Di, 14.07. 14:00 1013 - 1,4
Di, 14.07. 8:00 1017 - 0,4
Di, 14.07. 2:00 1020 - 0,7
Mo, 13.07. 20:00 1018 - 1,0
Mo, 13.07. 14:00 1021 - 1,2
Mo, 13.07. 8:00 1024 + 0,1
Mo, 13.07. 2:00 1025 - 0,6
Ortszeit Luftdruck NN (hPa) Tendenz (hPa in 3 Std.)
Mi, 15.07. 1:30 1013 + 0,3
Mi, 15.07. 1:20 1013 keine Meldung
Mi, 15.07. 1:10 1013 keine Meldung
Mi, 15.07. 1:00 1013 + 0,5
Mi, 15.07. 0:50 1013 keine Meldung
Mi, 15.07. 0:40 1013 keine Meldung
Mi, 15.07. 0:30 1013 + 0,5
Mi, 15.07. 0:00 1013 + 0,6
Di, 14.07. 23:30 1013 + 0,4
Di, 14.07. 23:00 1013 + 0,2
Di, 14.07. 22:30 1013 + 0,2
Ortszeit Schneehöhe (cm)
Di, 14.07. 20:00 -
Di, 14.07. 14:00 -
Di, 14.07. 8:00 -
Di, 14.07. 2:00 -
Mo, 13.07. 20:00 -
Mo, 13.07. 14:00 -
Mo, 13.07. 8:00 -
Mo, 13.07. 2:00 -
Ortszeit Schneehöhe (cm)
Mi, 15.07. 1:30 -
Mi, 15.07. 1:20 -
Mi, 15.07. 1:10 -
Mi, 15.07. 1:00 -
Mi, 15.07. 0:50 -
Mi, 15.07. 0:40 -
Mi, 15.07. 0:30 -
Mi, 15.07. 0:00 -
Di, 14.07. 23:30 -
Di, 14.07. 23:00 -
Di, 14.07. 22:30 -
Link zu dieser Seite / Seite empfehlen

Das Wetter in ...